STARLINK-32917 (62921 NORAD) Tracking and Keplerian Element Data

This shows tracking and keplerian element data for the satellite.

Feedback or suggestion? Click here.




ElementValue
Catalog62921
NameSTARLINK-32917
Epoch Orbit4935
Epoch Day353.99643011
Epoch Year2025
RAAN218.9864
Inclination43.0017
Eccentricity0.0002126
Argument of Perigee265.9827
Mean Anonmoly94.0782
Mean Motion15.27594725
Decay Rate0.00012213
L11 62921U 25027Q 25353.99643011 .00012213 00000+0 45238-3 0 9990
L22 62921 43.0017 218.9864 0002126 265.9827 94.0782 15.27594725 49353



Live tracking and technical data element details for STARLINK-32917 (NORAD 62921). STARLINK-32917 can be tracked NOW for your location showing map with azimuth and elevation plus other details from your city location.







IsCatalogInMostPopularTable: catalog: 62921, numindb: 2
Update: records affected: 1



GetName: 62921 STARLINK-32917

Hit Count: updated at: Sat, 07 Feb 2026 09:10:09 GMT